Clarion
Tuesday 11:35 PM
Temperature57° (75°/43°)
Dew Point54°
Relative Humidity88
%
Visibility10
mi
Pressure1019.6
mb
Wind DirectionS
180°
Wind Speed7
mph
Precipitation Today0.00"

Last 30 Observations

Time PresWx Temp DP Feels RH% Vsby Pressure Ceiling Direction Speed 1h Precip
11:15 PM 57° 54° 88
%
10
mi
1019.7
mb
S
180°
6
mph
0.00"
10:55 PM 57° 54° 88
%
10
mi
1020.0
mb
S
180°
7
mph
0.00"
10:35 PM 57° 54° 88
%
10
mi
1019.7
mb
S
170°
3
mph
0.00"
10:15 PM 59° 54° 82
%
10
mi
1019.7
mb
SSE
160°
7
mph
0.00"
9:55 PM 59° 54° 82
%
10
mi
1019.3
mb
SSE
150°
7
mph
0.00"
9:35 PM 61° 54° 77
%
10
mi
1019.3
mb
6,500
ft
SSE
150°
7
mph
0.00"
9:15 PM 63° 54° 72
%
10
mi
1019.3
mb
6,500
ft
SE
140°
7
mph
0.00"
8:55 PM 63° 54° 72
%
10
mi
1019.0
mb
6,500
ft
SSE
150°
6
mph
0.00"
8:35 PM 64° 54° 68
%
10
mi
1019.0
mb
SSE
150°
6
mph
0.00"
8:15 PM 66° 54° 64
%
10
mi
1019.0
mb
SSE
150°
5
mph
0.00"
7:55 PM 68° 50° 53
%
10
mi
1019.0
mb
SSE
160°
5
mph
0.00"
7:35 PM 72° 48° 71°43
%
10
mi
1019.0
mb
SSE
150°
5
mph
0.00"
7:15 PM 72° 48° 71°43
%
10
mi
1019.0
mb
SSE
150°
5
mph
0.00"
6:55 PM 73° 46° 72°38
%
10
mi
1019.0
mb
6,500
ft
SE
140°
5
mph
0.00"
6:35 PM 73° 45° 72°36
%
10
mi
1019.3
mb
Calm 0.00"
6:15 PM 75° 45° 74°34
%
10
mi
1019.3
mb
Calm 0.00"
5:55 PM 73° 46° 72°38
%
10
mi
1019.7
mb
Calm 0.00"
5:35 PM 72° 45° 70°38
%
10
mi
1019.7
mb
Calm 0.00"
5:15 PM 73° 46° 72°38
%
10
mi
1020.0
mb
Calm 0.00"
4:55 PM 73° 46° 72°38
%
10
mi
1020.0
mb
6,500
ft
Calm 0.00"
4:35 PM 75° 46° 74°36
%
10
mi
1020.3
mb
6,000
ft
E
90°
8
mph
0.00"
4:15 PM 75° 45° 74°34
%
10
mi
1020.3
mb
6,000
ft
SE
140°
7
mph
0.00"
3:55 PM 73° 45° 72°36
%
10
mi
1020.3
mb
Calm 0.00"
3:35 PM 73° 46° 72°38
%
10
mi
1020.7
mb
Variable 5
mph
0.00"
3:15 PM 73° 45° 72°36
%
10
mi
1020.7
mb
Variable 5
mph
0.00"
2:55 PM 73° 46° 72°38
%
10
mi
1021.0
mb
Variable 3
mph
0.00"
2:35 PM 72° 45° 70°38
%
10
mi
1021.3
mb
Calm 0.00"
2:15 PM 73° 46° 72°38
%
10
mi
1021.3
mb
3
mph
0.00"
1:55 PM 73° 46° 72°38
%
10
mi
1021.7
mb
Variable 6
mph
0.00"
1:35 PM 72° 46° 70°41
%
10
mi
1021.3
mb
Calm 0.00"